Weather History for Papa, Hungary

Change the Weather History Date:

Saturday, October 27, 2012

  Actual Average Record
Temperature  
Mean Temperature 50 °F -  
Max Temperature 64 °F - - ()
Min Temperature 35 °F - - ()
Degree Days  
Heating Degree Days 14    
Moisture  
Dew Point 49 °F    
Average Humidity 93    
Maximum Humidity 100    
Minimum Humidity 73    
Precipitation  
Precipitation 0.00 in - - ()
Sea Level Pressure  
Sea Level Pressure 29.32 in    
Wind  
Wind Speed 9 mph ()    
Max Wind Speed 22 mph    
Max Gust Speed 34 mph    
Visibility 3.9 miles    
Events Rain    
T = Trace of Precipitation, MM = Missing Value Source: Averaged Metar Reports

Daily Weather History Graph

Daily Weather History Graph

Search for Another Location

Airport:

Trip Planner

Search our weather history database for the weather conditions in past years. The results will help you decide how hot, cold, wet, or windy it might be!

Date:

Astronomy

Oct. 27, 2012 Rise Set
Actual Time 7:26 AM CEST 5:40 PM CEST
Civil Twilight 6:54 AM CEST 6:12 PM CEST
Nautical Twilight 6:18 AM CEST 6:48 PM CEST
Astronomical Twilight 5:43 AM CEST 7:23 PM CEST
Moon 4:22 PM CEST (10/27) 4:56 AM CEST (10/27)
Length of Visible Light 11h 17m
Length of Day
10h 14m
Waxing Gibbous, 95% of the Moon is Illuminated
Oct 27
Waxing Gibbous
Oct 29
Full
Nov 7
Last Quarter
Nov 13
New
Nov 20
First Quarter

Hourly Weather History & Observations

Time (CEST) Temp. Windchill Dew Point Humidity Pressure Visibility Wind Dir Wind Speed Gust Speed Precip Events Conditions
12:15 AM 50.0 °F - 50.0 °F 100% 29.53 in 1.2 mi South 4.5 mph - N/A   Overcast
12:45 AM 51.8 °F - 50.0 °F 94% 29.50 in 1.6 mi South 2.2 mph - N/A   Overcast
12:58 AM 51.8 °F - 50.0 °F 94% 29.50 in 1.9 mi South 4.5 mph - N/A   Mostly Cloudy
1:15 AM 51.8 °F - 50.0 °F 94% 29.50 in 2.5 mi SSW 6.7 mph - N/A   Mostly Cloudy
1:36 AM 51.8 °F - 50.0 °F 94% 29.47 in 2.5 mi South 4.5 mph - N/A   Mostly Cloudy
1:45 AM 51.8 °F - 50.0 °F 94% 29.47 in 2.5 mi SSW 4.5 mph - N/A   Overcast
2:01 AM 51.8 °F - 50.0 °F 94% 29.47 in 2.5 mi SSW 2.2 mph - N/A Rain Light Rain
2:15 AM 51.8 °F - 50.0 °F 94% 29.47 in 2.5 mi South 2.2 mph - N/A Rain Light Rain
2:45 AM 51.8 °F - 50.0 °F 94% 29.44 in 2.5 mi SSW 2.2 mph - N/A Rain Light Rain
3:15 AM 51.8 °F - 50.0 °F 94% 29.44 in 2.5 mi WSW 2.2 mph - N/A Rain Light Rain
3:34 AM 51.8 °F - 50.0 °F 94% 29.42 in 1.9 mi Calm Calm - N/A Rain Light Rain
3:45 AM - - - N/A% - 3.7 mi Variable 2.2 mph - N/A   Overcast
4:15 AM 50.0 °F - 50.0 °F 100% 29.39 in 1.2 mi SE 2.2 mph - N/A Rain Light Rain
4:45 AM 50.0 °F - 50.0 °F 100% 29.36 in 1.2 mi SE 2.2 mph - N/A Rain Light Rain
5:15 AM 50.0 °F - 50.0 °F 100% 29.36 in 1.2 mi SW 4.5 mph - N/A Rain Light Rain
5:45 AM 51.8 °F - 50.0 °F 94% 29.33 in 1.2 mi SSW 4.5 mph - N/A Rain Light Rain
6:15 AM 51.8 °F - 50.0 °F 94% 29.33 in 1.2 mi South 4.5 mph - N/A Rain Rain
6:45 AM - - - N/A% - 5.0 mi SSE 8.9 mph - N/A   Overcast
7:15 AM 51.8 °F - 51.8 °F 100% 29.27 in 1.9 mi SSE 8.9 mph - N/A Rain Rain
7:45 AM 51.8 °F - 51.8 °F 100% 29.27 in 1.9 mi SSE 11.2 mph - N/A Rain Rain
8:15 AM 51.8 °F - 51.8 °F 100% 29.27 in 1.9 mi South 11.2 mph - N/A Rain Rain
8:45 AM 53.6 °F - 51.8 °F 94% 29.24 in 2.5 mi South 13.4 mph - N/A Rain Light Rain
9:15 AM 53.6 °F - 51.8 °F 94% 29.24 in 2.5 mi SSE 15.7 mph - N/A Rain Light Rain
9:45 AM - - - N/A% - 5.0 mi SSE 13.4 mph - N/A   Overcast
10:15 AM 57.2 °F - 53.6 °F 88% 29.21 in 5.0 mi South 15.7 mph - N/A   Mostly Cloudy
10:45 AM 57.2 °F - 53.6 °F 88% 29.21 in 5.0 mi South 13.4 mph 24.6 mph N/A   Mostly Cloudy
11:15 AM 57.2 °F - 53.6 °F 88% 29.21 in 5.0 mi SSE 17.9 mph - N/A   Mostly Cloudy
11:19 AM 57.2 °F - 55.4 °F 94% 29.21 in 5.0 mi South 17.9 mph 29.1 mph N/A   Mostly Cloudy
11:45 AM 59.0 °F - 55.4 °F 88% 29.18 in 5.0 mi South 15.7 mph 26.8 mph N/A   Mostly Cloudy
12:15 PM 57.2 °F - 53.6 °F 88% 29.18 in 5.0 mi South 15.7 mph 26.8 mph N/A   Mostly Cloudy
12:29 PM 57.2 °F - 53.6 °F 88% 29.18 in 5.0 mi South 15.7 mph 26.8 mph N/A Rain Light Rain
12:45 PM - - - N/A% - 5.0 mi South 15.7 mph 26.8 mph N/A   Overcast
1:15 PM 57.2 °F - 55.4 °F 94% 29.15 in 3.7 mi South 11.2 mph 22.4 mph N/A Rain Light Rain
1:35 PM 59.0 °F - 55.4 °F 88% 29.15 in 5.0 mi South 13.4 mph 24.6 mph N/A   Mostly Cloudy
1:45 PM 60.8 °F - 57.2 °F 88% 29.15 in 5.0 mi South 13.4 mph 26.8 mph N/A   Mostly Cloudy
2:15 PM 62.6 °F - 57.2 °F 82% 29.12 in 5.0 mi South 17.9 mph 29.1 mph N/A   Mostly Cloudy
2:45 PM 64.4 °F - 55.4 °F 73% 29.15 in 5.0 mi South 17.9 mph 31.3 mph N/A   Mostly Cloudy
3:15 PM 62.6 °F - 57.2 °F 82% 29.15 in 6.2 mi SSW 17.9 mph - N/A   Mostly Cloudy
3:45 PM - - - N/A% - 6.2 mi SSW 15.7 mph - N/A   Overcast
4:15 PM 62.6 °F - 57.2 °F 82% 29.15 in 6.2 mi SW 11.2 mph - N/A   Mostly Cloudy
4:45 PM 57.2 °F - 53.6 °F 88% 29.18 in 6.2 mi WSW 17.9 mph - N/A   Overcast
5:00 PM - - - N/A% - 6.2 mi NNW 15.7 mph - N/A   Overcast
5:15 PM 50.0 °F - 46.4 °F 87% 29.21 in 6.2 mi NNW 22.4 mph - N/A   Overcast
5:45 PM 48.2 °F - 44.6 °F 87% 29.24 in 6.2 mi NNW 22.4 mph 33.6 mph N/A   Overcast
6:03 PM 46.4 °F 38.9 °F 44.6 °F 93% 29.27 in 5.0 mi North 20.1 mph - N/A Rain Light Rain
6:15 PM 46.4 °F 39.9 °F 44.6 °F 93% 29.27 in 5.0 mi North 15.7 mph 29.1 mph N/A Rain Light Rain
6:45 PM - - - N/A% - 6.2 mi NNW 17.9 mph - N/A   Overcast
7:11 PM 44.6 °F 37.6 °F 42.8 °F 93% 29.30 in 3.7 mi NNW 15.7 mph 29.1 mph N/A Rain Light Rain
7:15 PM 44.6 °F 37.0 °F 42.8 °F 93% 29.30 in 3.7 mi North 17.9 mph 31.3 mph N/A Rain Rain
7:45 PM 42.8 °F 35.2 °F 41.0 °F 93% 29.33 in 5.0 mi NNW 15.7 mph 31.3 mph N/A Rain Light Rain
8:15 PM 42.8 °F 34.1 °F 41.0 °F 93% 29.36 in 5.0 mi North 20.1 mph 31.3 mph N/A Rain Light Rain
8:45 PM 41.0 °F 32.3 °F 39.2 °F 93% 29.36 in 5.0 mi North 17.9 mph 31.3 mph N/A Rain Light Rain
9:15 PM 41.0 °F 31.8 °F 39.2 °F 93% 29.42 in 3.7 mi North 20.1 mph 31.3 mph N/A Rain Rain
9:28 PM 39.2 °F 28.9 °F 39.2 °F 100% 29.39 in 1.9 mi North 22.4 mph - N/A Rain Heavy Rain
9:45 PM - - - N/A% - 6.2 mi NNW 17.9 mph - N/A   Overcast
10:12 PM 39.2 °F 29.4 °F 37.4 °F 93% 29.42 in 3.7 mi NNW 20.1 mph 31.3 mph N/A Rain Rain
10:15 PM 39.2 °F 28.9 °F 37.4 °F 93% 29.42 in 3.7 mi North 22.4 mph - N/A Rain Rain
10:45 PM 37.4 °F 27.0 °F 37.4 °F 100% 29.44 in 5.0 mi North 20.1 mph 31.3 mph N/A Rain Light Rain
11:15 PM 37.4 °F 27.0 °F 35.6 °F 93% 29.44 in 5.0 mi NNW 20.1 mph 31.3 mph N/A Rain Light Rain
11:45 PM 35.6 °F 24.7 °F 35.6 °F 100% 29.47 in 5.0 mi NNW 20.1 mph 33.6 mph N/A Rain Light Rain